User: anonymous   Login
Location: Betra
(48.4113°N, 8.6634°E)
Time: 07:28:24
(UTC+00:00)
Language:

Cosmos 1709 Rocket - Orbit

View from above orbital plane
View from above orbital plane
View from above satellite
View from above satellite

Ground track
Ground track

The orbit data is extracted from the following two-line orbital elements,

1 16369U 85116B   24201.79725020  .00000235  00000-0  22109-3 0  9994
2 16369  82.9348 222.2052 0037682 111.0134  61.5086 13.77040941938038
Epoch (UTC): 19 July 2024 19:08:02
Eccentricity: 0.0037682
inclination: 82.9348°
perigee height: 946 km
apogee height: 1002 km
right ascension of ascending node: 222.2052°
argument of perigee: 111.0134°
revolutions per day: 13.77040941
mean anomaly at epoch: 61.5086°
orbit number at epoch: 93803

The dashed part of the orbit path shows where the satellite is in the earth's shadow,  

DLR